| time (UTC) | temp C | wind direction | speed KPH | gust KPH | rain 1hr cm | rain 24hr cm | rain mn cm | humidity % | barometer mb |
| 20260508151555 | 19 | 51 | 4.8 | 14.5 | 0.00 | 0.00 | 0.00 | 93 | 1013.7 |
| 20260508150122 | 19 | 24 | 6.4 | 16.1 | 0.00 | 0.00 | 0.00 | 93 | 1013.6 |
| 20260508144602 | 19 | 36 | 4.8 | 11.3 | 0.00 | 0.00 | 0.00 | 93 | 1013.6 |
| 20260508143054 | 19 | 352 | 4.8 | 6.4 | 0.00 | 0.00 | 0.00 | 93 | 1013.9 |
| 20260508141603 | 19 | 17 | 1.6 | 4.8 | 0.00 | 0.00 | 0.00 | 93 | 1014.1 |
| 20260508140059 | 19 | 24 | 3.2 | 8.0 | 0.00 | 0.00 | 0.00 | 92 | 1013.8 |
| 20260508134551 | 20 | 17 | 4.8 | 8.0 | 0.00 | 0.00 | 0.00 | 92 | 1013.6 |
| 20260508133052 | 20 | 47 | 0.0 | 4.8 | 0.00 | 0.00 | 0.00 | 92 | 1013.7 |
| 20260508131558 | 19 | 58 | 4.8 | 9.7 | 0.00 | 0.00 | 0.00 | 92 | 1013.9 |
| 20260508130056 | 20 | 36 | 3.2 | 16.1 | 0.00 | 0.00 | 0.00 | 92 | 1013.7 |
| 20260508124600 | 20 | 35 | 4.8 | 11.3 | 0.00 | 0.00 | 0.00 | 92 | 1013.7 |
| 20260508123056 | 20 | 44 | 6.4 | 12.9 | 0.00 | 0.00 | 0.00 | 91 | 1013.8 |
| 20260508121559 | 20 | 19 | 4.8 | 8.0 | 0.00 | 0.00 | 0.00 | 91 | 1013.7 |
| 20260508120103 | 20 | 36 | 4.8 | 11.3 | 0.00 | 0.00 | 0.00 | 91 | 1013.1 |
| 20260508114604 | 20 | 57 | 3.2 | 8.0 | 0.00 | 0.00 | 0.00 | 91 | 1013.0 |
| 20260508113125 | 20 | 42 | 3.2 | 6.4 | 0.00 | 0.00 | 0.00 | 91 | 1013.4 |
| 20260508111553 | 20 | 28 | 3.2 | 6.4 | 0.00 | 0.00 | 0.00 | 91 | 1013.5 |
| 20260508110057 | 20 | 30 | 3.2 | 12.9 | 0.00 | 0.00 | 0.00 | 91 | 1013.6 |
| 20260508104559 | 21 | 37 | 4.8 | 11.3 | 0.00 | 0.00 | 0.00 | 91 | 1012.8 |
| 20260508103104 | 21 | 43 | 4.8 | 12.9 | 0.00 | 0.00 | 0.00 | 91 | 1013.0 |
| 20260508101557 | 21 | 39 | 8.0 | 16.1 | 0.00 | 0.00 | 0.00 | 91 | 1013.2 |
| 20260508100100 | 22 | 52 | 1.6 | 6.4 | 0.00 | 0.00 | 0.00 | 91 | 1012.9 |
| 20260508094553 | 22 | 24 | 1.6 | 4.8 | 0.00 | 0.00 | 0.00 | 91 | 1013.3 |
| 20260508093055 | 22 | 45 | 1.6 | 6.4 | 0.00 | 0.00 | 0.00 | 91 | 1013.3 |
| 20260508091554 | 22 | 66 | 1.6 | 4.8 | 0.00 | 0.00 | 0.00 | 90 | 1013.3 |
| 20260508090054 | 22 | 61 | 0.0 | 3.2 | 0.00 | 0.00 | 0.00 | 90 | 1013.3 |
| 20260508084557 | 22 | 291 | 0.0 | 4.8 | 0.00 | 0.00 | 0.00 | 88 | 1013.1 |
| 20260508083053 | 22 | 0 | 0.0 | 3.2 | 0.00 | 0.00 | 0.00 | 87 | 1013.4 |
| 20260508081601 | 22 | 256 | 1.6 | 3.2 | 0.00 | 0.00 | 0.00 | 86 | 1013.3 |
| 20260508080053 | 22 | 290 | 1.6 | 4.8 | 0.00 | 0.00 | 0.00 | 84 | 1013.4 |
| 20260508074556 | 23 | 47 | 0.0 | 3.2 | 0.00 | 0.00 | 0.00 | 83 | 1013.1 |
| 20260508073103 | 23 | 0 | 0.0 | 3.2 | 0.00 | 0.00 | 0.00 | 84 | 1013.5 |
| 20260508071553 | 23 | 0 | 1.6 | 6.4 | 0.00 | 0.00 | 0.00 | 84 | 1013.8 |
| 20260508070101 | 23 | 123 | 1.6 | 12.9 | 0.00 | 0.00 | 0.00 | 83 | 1013.6 |
| 20260508064606 | 23 | 52 | 3.2 | 9.7 | 0.00 | 0.00 | 0.00 | 83 | 1013.5 |
| 20260508063055 | 23 | 41 | 3.2 | 6.4 | 0.00 | 0.00 | 0.00 | 83 | 1013.2 |
| 20260508061600 | 23 | 20 | 0.0 | 3.2 | 0.00 | 0.00 | 0.00 | 83 | 1013.9 |
| 20260508060100 | 23 | 0 | 0.0 | 3.2 | 0.00 | 0.00 | 0.00 | 82 | 1014.1 |
| 20260508054623 | 23 | 53 | 0.0 | 4.8 | 0.00 | 0.00 | 0.00 | 81 | 1013.8 |
| 20260508053056 | 23 | 76 | 4.8 | 11.3 | 0.00 | 0.00 | 0.00 | 81 | 1013.3 |
| 20260508051557 | 23 | 20 | 0.0 | 4.8 | 0.00 | 0.00 | 0.00 | 81 | 1013.4 |
| 20260508050058 | 23 | 46 | 1.6 | 8.0 | 0.00 | 0.00 | 0.00 | 80 | 1013.4 |
| 20260508044555 | 23 | 360 | 1.6 | 4.8 | 0.00 | 0.00 | 0.00 | 80 | 1013.2 |
| 20260508043057 | 23 | 36 | 1.6 | 4.8 | 0.00 | 0.00 | 0.00 | 79 | 1013.7 |
| 20260508041554 | 23 | 65 | 1.6 | 4.8 | 0.00 | 0.00 | 0.00 | 78 | 1014.1 |
| 20260508040106 | 23 | 331 | 0.0 | 8.0 | 0.00 | 0.00 | 0.00 | 78 | 1014.9 |
| 20260508034556 | 23 | 63 | 3.2 | 9.7 | 0.00 | 0.00 | 0.00 | 77 | 1014.9 |
| 20260508033057 | 23 | 65 | 3.2 | 8.0 | 0.00 | 0.00 | 0.00 | 77 | 1014.7 |
| 20260508031603 | 23 | 82 | 4.8 | 12.9 | 0.00 | 0.00 | 0.00 | 75 | 1014.5 |
| 20260508030104 | 23 | 63 | 3.2 | 11.3 | 0.00 | 0.00 | 0.00 | 75 | 1014.3 |
| 20260508024553 | 23 | 53 | 3.2 | 9.7 | 0.00 | 0.00 | 0.00 | 75 | 1014.4 |
| 20260508023054 | 23 | 51 | 3.2 | 9.7 | 0.00 | 0.00 | 0.00 | 74 | 1014.2 |
| 20260508021601 | 23 | 31 | 3.2 | 12.9 | 0.00 | 0.00 | 0.00 | 74 | 1014.6 |
| 20260508020059 | 23 | 55 | 3.2 | 14.5 | 0.00 | 0.00 | 0.00 | 75 | 1014.1 |
| 20260508014554 | 23 | 57 | 4.8 | 9.7 | 0.00 | 0.00 | 0.00 | 77 | 1014.5 |
| 20260508013057 | 23 | 67 | 3.2 | 8.0 | 0.00 | 0.00 | 0.00 | 77 | 1014.3 |
| 20260508011606 | 23 | 28 | 1.6 | 6.4 | 0.00 | 0.00 | 0.00 | 77 | 1014.1 |
| 20260508010105 | 24 | 51 | 4.8 | 8.0 | 0.00 | 0.00 | 0.00 | 75 | 1014.0 |
| 20260508004553 | 24 | 47 | 3.2 | 12.9 | 0.00 | 0.00 | 0.00 | 74 | 1013.9 |
| 20260508003111 | 24 | 63 | 4.8 | 16.1 | 0.00 | 0.00 | 0.00 | 75 | 1013.7 |
| 20260508001553 | 25 | 46 | 4.8 | 9.7 | 0.00 | 0.00 | 0.00 | 75 | 1013.9 |
| 20260508000116 | 25 | 39 | 4.8 | 14.5 | 0.00 | 0.00 | 0.00 | 74 | 1013.8 |
| 20260507234555 | 25 | 53 | 4.8 | 11.3 | 0.00 | 0.00 | 0.00 | 72 | 1013.8 |
| 20260507233055 | 25 | 61 | 1.6 | 17.7 | 0.00 | 0.00 | 0.00 | 73 | 1013.9 |
| 20260507231559 | 25 | 71 | 6.4 | 9.7 | 0.00 | 0.00 | 0.00 | 72 | 1013.8 |
| 20260507230055 | 25 | 65 | 4.8 | 14.5 | 0.00 | 0.00 | 0.00 | 72 | 1013.8 |
| 20260507224557 | 25 | 55 | 6.4 | 14.5 | 0.00 | 0.00 | 0.00 | 70 | 1013.9 |
| 20260507223053 | 26 | 38 | 6.4 | 14.5 | 0.00 | 0.00 | 0.00 | 69 | 1013.7 |
| 20260507221602 | 26 | 36 | 4.8 | 12.9 | 0.00 | 0.00 | 0.00 | 69 | 1013.8 |
| 20260507220055 | 26 | 132 | 4.8 | 12.9 | 0.00 | 0.00 | 0.00 | 69 | 1013.9 |
| 20260507214557 | 26 | 47 | 6.4 | 16.1 | 0.00 | 0.00 | 0.00 | 69 | 1013.7 |
| 20260507213058 | 25 | 19 | 6.4 | 14.5 | 0.00 | 0.00 | 0.00 | 73 | 1013.8 |
| 20260507211601 | 25 | 323 | 6.4 | 14.5 | 0.00 | 0.00 | 0.00 | 72 | 1014.1 |
| 20260507210056 | 25 | 17 | 9.7 | 16.1 | 0.00 | 0.00 | 0.00 | 72 | 1014.2 |
| 20260507204554 | 25 | 40 | 6.4 | 12.9 | 0.00 | 0.00 | 0.00 | 72 | 1014.5 |
| 20260507203056 | 24 | 43 | 4.8 | 19.3 | 0.00 | 0.00 | 0.00 | 72 | 1014.6 |
| 20260507201557 | 24 | 15 | 11.3 | 19.3 | 0.00 | 0.00 | 0.00 | 72 | 1014.7 |
| 20260507200103 | 24 | 27 | 4.8 | 16.1 | 0.00 | 0.00 | 0.00 | 73 | 1015.0 |
| 20260507194557 | 23 | 30 | 8.0 | 14.5 | 0.00 | 0.00 | 0.00 | 73 | 1015.0 |
| 20260507193057 | 23 | 10 | 3.2 | 9.7 | 0.00 | 0.00 | 0.00 | 73 | 1015.3 |
| 20260507191555 | 23 | 46 | 4.8 | 14.5 | 0.00 | 0.00 | 0.00 | 74 | 1015.5 |
| 20260507190059 | 23 | 32 | 6.4 | 17.7 | 0.00 | 0.00 | 0.00 | 74 | 1015.5 |
| 20260507184555 | 22 | 34 | 4.8 | 12.9 | 0.00 | 0.00 | 0.00 | 78 | 1015.7 |
| 20260507183056 | 21 | 19 | 8.0 | 17.7 | 0.00 | 0.00 | 0.00 | 77 | 1015.8 |
| 20260507181554 | 21 | 14 | 8.0 | 17.7 | 0.00 | 0.00 | 0.00 | 77 | 1016.1 |
| 20260507180106 | 21 | 28 | 8.0 | 17.7 | 0.00 | 0.00 | 0.00 | 78 | 1016.0 |
| 20260507174625 | 21 | 360 | 11.3 | 20.9 | 0.00 | 0.00 | 0.00 | 79 | 1016.3 |
| 20260507173055 | 20 | 15 | 8.0 | 19.3 | 0.00 | 0.00 | 0.00 | 80 | 1016.4 |
| 20260507171611 | 20 | 24 | 6.4 | 16.1 | 0.00 | 0.00 | 0.00 | 80 | 1016.5 |
| 20260507170100 | 19 | 17 | 9.7 | 17.7 | 0.00 | 0.00 | 0.00 | 80 | 1016.5 |
| 20260507164556 | 19 | 26 | 8.0 | 19.3 | 0.00 | 0.00 | 0.00 | 81 | 1016.3 |
| 20260507163055 | 18 | 9 | 6.4 | 17.7 | 0.00 | 0.00 | 0.00 | 82 | 1016.5 |
| 20260507161557 | 18 | 352 | 8.0 | 19.3 | 0.00 | 0.00 | 0.00 | 82 | 1016.4 |
| 20260507160116 | 18 | 57 | 9.7 | 17.7 | 0.00 | 0.00 | 0.00 | 83 | 1016.3 |
| 20260507154554 | 18 | 48 | 9.7 | 17.7 | 0.00 | 0.00 | 0.00 | 83 | 1016.6 |
| 20260507153053 | 18 | 26 | 9.7 | 17.7 | 0.00 | 0.00 | 0.00 | 83 | 1016.6 |